This demonstration page uses our WeatherBlox Daily Observations layout. Learn more.

36.17497, -115.13722

Hourly Observations for September 12, 2018

Temp ( °F °C ) Dew Point ( °F °C ) Humidity (%) Winds ( mph kmh ) Pressure ( in mb ) Visibility ( mi km ) Precip ( " mm )
12:53 am 00:53 Clear 86 30 20 -6.7 9 9 SSW 12 19 29.65 1004 10 16.09344 0 0
1:53 am 01:53 Clear 84 28.9 23 -5 10 10 S 7 11 29.68 1005 10 16.09344 0 0
2:53 am 02:53 Clear 82 27.8 25 -3.9 12 12 S 14 22 29.65 1004 10 16.09344 0 0
3:53 am 03:53 Clear 82 27.8 23 -5 11 11 SSW 18 30 29.65 1004 10 16.09344 0 0
4:53 am 04:53 Clear 81 27.2 22 -5.6 11 11 S 12 19 29.65 1004 10 16.09344 0 0
5:53 am 05:53 Clear 78 25.6 24 -4.4 13 13 SSE 10 17 29.68 1005 10 16.09344 0 0
6:53 am 06:53 Sunny 75 23.9 25 -3.9 15 15 WNW 7 11 29.71 1006 10 16.09344 0 0
7:53 am 07:53 Sunny 78 25.6 26 -3.3 15 15 WNW 5 7 29.71 1006 10 16.09344 0 0
8:53 am 08:53 Sunny 82 27.8 27 -2.8 13 13 NW 8 13 29.74 1007 10 16.09344 0 0
9:53 am 09:53 Sunny 85 29.4 26 -3.3 12 12 NW 7 11 29.74 1007 10 16.09344 0 0
10:53 am 10:53 Sunny 91 32.8 26 -3.3 9 9 S 15 24 29.74 1007 10 16.09344 0 0
11:18 am 11:18 Sunny 92 33.3 24 -4.4 8 8 SW 16 26 29.59 1002 10 16.09344 0 0
11:53 am 11:53 Sunny 95 35 24 -4.4 8 8 WSW 20 31 29.71 1006 10 16.09344 0 0
12:53 pm 12:53 Sunny 97 36.1 22 -5.6 7 7 SW 23 37 29.68 1005 10 16.09344 0 0
1:53 pm 13:53 Sunny 97 36.1 23 -5 7 7 WSW 21 33 29.68 1005 10 16.09344 0 0
2:53 pm 14:53 Sunny 98 36.7 25 -3.9 7 7 SW 16 26 29.65 1004 10 16.09344 0 0
3:53 pm 15:53 Sunny 98 36.7 23 -5 7 7 SSW 21 33 29.65 1004 10 16.09344 0 0
4:53 pm 16:53 Sunny 97 36.1 25 -3.9 7 7 SW 16 26 29.65 1004 10 16.09344 0 0
5:53 pm 17:53 Sunny 95 35 23 -5 7 7 SSW 23 37 29.65 1004 10 16.09344 0 0
6:53 pm 18:53 Clear 93 33.9 22 -5.6 7 7 SW 18 30 29.65 1004 10 16.09344 0 0
7:53 pm 19:53 Clear 91 32.8 23 -5 8 8 SW 5 7 29.68 1005 10 16.09344 0 0
8:53 pm 20:53 Clear 89 31.7 22 -5.6 8 8 WSW 14 22 29.71 1006 10 16.09344 0 0
9:53 pm 21:53 Clear 88 31.1 23 -5 9 9 WSW 9 15 29.71 1006 10 16.09344 0 0
10:53 pm 22:53 Clear 86 30 24 -4.4 10 10 SW 8 13 29.71 1006 10 16.09344 0 0
11:53 pm 23:53 Clear 84 28.9 24 -4.4 11 11 SSW 9 15 29.71 1006 10 16.09344 0 0

Powered by AerisWeather